Weather History for Los Alamitos, CA

Change the Weather History Date:

Sunday, February 3, 2013

  Actual Average Record
Temperature  
Mean Temperature 62 °F -  
Max Temperature 73 °F 66 °F 80 °F (2001)
Min Temperature 52 °F 49 °F 36 °F (2011)
Degree Days  
Heating Degree Days 2    
Growing Degree Days 12 (Base 50)    
Moisture  
Dew Point 53 °F    
Average Humidity 80    
Maximum Humidity 100    
Minimum Humidity 40    
Precipitation  
Precipitation 0.00 in - - ()
Sea Level Pressure  
Sea Level Pressure 30.08 in    
Wind  
Wind Speed 4 mph (East)    
Max Wind Speed 15 mph    
Max Gust Speed -    
Visibility 10 miles    
Events Rain    
Averages and records for this station are not official NWS values.
T = Trace of Precipitation, MM = Missing Value Source: NWS Daily Summary

Daily Weather History Graph

Daily Weather History Graph

Search for Another Location

Airport:

Trip Planner

Search our weather history database for the weather conditions in past years. The results will help you decide how hot, cold, wet, or windy it might be!

Date:

Astronomy

Feb. 03, 2013 Rise Set
Actual Time 6:47 AM PST 5:25 PM PST
Civil Twilight 6:21 AM PST 5:51 PM PST
Nautical Twilight 5:51 AM PST 6:21 PM PST
Astronomical Twilight 5:22 AM PST 6:50 PM PST
Moon 12:19 AM PST (2/3) 11:08 AM PST (2/3)
Length of Visible Light 11h 30m
Length of Day
10h 38m
Waning Gibbous, 47% of the Moon is Illuminated
Feb 3
Waning Gibbous
Feb 9
New
Feb 17
First Quarter
Feb 25
Full
Mar 4
Last Quarter

Hourly Weather History & Observations

Time (PST) Temp. Dew Point Humidity Pressure Visibility Wind Dir Wind Speed Gust Speed Precip Events Conditions
12:08 AM 60.8 °F 55.4 °F 82% 30.15 in 10.0 mi SSE 3.5 mph - N/A   Overcast
12:36 AM 59.0 °F 55.4 °F 88% 30.14 in 10.0 mi ENE 2.3 mph - N/A Rain Light Rain
12:58 AM 59.2 °F 55.9 °F 89% 30.15 in 10.0 mi ENE 3.5 mph - 0.00 in Rain Light Rain
1:17 AM 59.0 °F 57.2 °F 94% 30.13 in 10.0 mi Variable 1.2 mph - N/A   Overcast
1:58 AM 59.4 °F 56.5 °F 90% 30.12 in 10.0 mi East 4.6 mph - 0.00 in   Overcast
2:58 AM 60.1 °F 54.9 °F 83% 30.12 in 10.0 mi NE 4.6 mph - N/A   Overcast
3:58 AM 58.5 °F 54.0 °F 85% 30.11 in 10.0 mi WNW 3.5 mph - N/A   Mostly Cloudy
4:58 AM 55.2 °F 53.4 °F 94% 30.11 in 10.0 mi NNW 4.6 mph - N/A   Clear
5:58 AM 54.1 °F 50.9 °F 89% 30.10 in 10.0 mi NW 4.6 mph - N/A   Clear
6:58 AM 52.9 °F 49.6 °F 89% 30.11 in 10.0 mi NNW 3.5 mph - N/A   Clear
7:58 AM 58.5 °F 52.2 °F 80% 30.11 in 10.0 mi NNW 2.3 mph - N/A   Scattered Clouds
8:58 AM 64.2 °F 51.6 °F 64% 30.12 in 10.0 mi North 2.3 mph - N/A   Scattered Clouds
9:58 AM 67.8 °F 48.7 °F 50% 30.11 in 10.0 mi Calm Calm - N/A   Scattered Clouds
10:58 AM 70.9 °F 48.4 °F 45% 30.11 in 10.0 mi Variable 1.2 mph - N/A   Scattered Clouds
11:58 AM 73.8 °F 47.7 °F 40% 30.07 in 10.0 mi WNW 6.9 mph - N/A   Scattered Clouds
12:58 PM 70.5 °F 51.6 °F 51% 30.03 in 10.0 mi South 9.2 mph - N/A   Scattered Clouds
1:58 PM 70.2 °F 50.2 °F 49% 30.03 in 10.0 mi SW 15.0 mph - N/A   Mostly Cloudy
2:58 PM 66.4 °F 54.1 °F 65% 30.02 in 10.0 mi SW 10.4 mph - N/A   Mostly Cloudy
3:58 PM 61.7 °F 54.0 °F 76% 30.02 in 10.0 mi SSE 8.1 mph - N/A   Clear
4:58 PM 59.9 °F 53.1 °F 78% 30.02 in 10.0 mi South 5.8 mph - N/A   Clear
5:58 PM 57.0 °F 53.8 °F 89% 30.03 in 10.0 mi SE 5.8 mph - N/A   Clear
6:58 PM 56.5 °F 54.5 °F 93% 30.04 in 10.0 mi SE 4.6 mph - N/A   Clear
7:58 PM 55.2 °F 53.8 °F 95% 30.05 in 10.0 mi East 4.6 mph - N/A   Clear
8:58 PM 53.4 °F 52.0 °F 95% 30.06 in 10.0 mi East 3.5 mph - N/A   Clear
9:58 PM 53.1 °F 52.7 °F 99% 30.06 in 10.0 mi East 3.5 mph - N/A   Clear
10:58 PM 53.4 °F 53.4 °F 100% 30.06 in 10.0 mi East 5.8 mph - N/A   Clear
11:58 PM 53.2 °F 53.2 °F 100% 30.07 in 10.0 mi ESE 4.6 mph - N/A   Clear